sat.trackr.live / text

‹ back to catalog

STARLINK-31086

NORAD 58626 · 2023-203J

PAYLOAD ACTIVE UNKNOWN

§ Identity

Operator
Country
US
Launch date
2023-12-23
Launch site
AFETR
Launch vehicle
Mass (kg)
RCS (m²)

Purposes: comms

External: N2YO · Heavens-Above · Gunter

§ Orbital elements

Epoch: 2026-09-20T09:30:44.952768Z

Period
94.27 min
Inclination
43.0057°
Eccentricity
0.0001536
Mean motion
15.27577408 rev/d
Perigee alt
482.0 km
Apogee alt
484.1 km
Semi-major
6,861.2 km
B*
1.4417e-5
RAAN
47.1150°
Arg perigee
274.3202°
Mean anomaly
85.7474°
Rev number
15,334

§ Raw data

STARLINK-310861 58626U 23203J   26263.39635362  .00000134  00000+0  14417-4 0  99912 58626  43.0057  47.1150 0001536 274.3202  85.7474 15.27577408153348

JSON: /api/v1/satellites/58626 · /tle

For live sub-satellite position, see the globe view (requires WebGL).

§ Visibility from observer

Set your observer location to see the next 7 days of passes ≥ 10°. The values pass through the URL so the page stays shareable.

No JS? Fill the form by hand. The geolocation button needs JavaScript.